EW2964 Weather Reports


time (UTC)temp
F
wind
direction
speed
knots
gust
knots
rain 1hr
in
rain 24hr
in
rain mn
in
humidity
%
barometer
mb
20260905164903 75 286 2.6 6.1 0.00 1.37 0.83 78 1015.3
20260905164502 74 346 4.3 8.7 0.00 1.37 0.83 79 1016.2
20260905163403 74 340 6.1 8.7 0.00 1.37 0.83 80 1015.6
20260905163002 73 334 3.5 12.2 0.00 1.37 0.83 81 1016.4
20260905162903 74 311 6.1 10.4 0.00 1.37 0.83 82 1015.8
20260905162402 74 331 7.0 12.2 0.00 1.37 0.83 84 1015.9
20260905161502 72 336 6.1 11.3 0.00 1.37 0.83 88 1016.6
20260905161403 73 342 7.8 11.3 0.00 1.37 0.83 87 1015.9
20260905160903 72 324 6.1 10.4 0.00 1.37 0.83 87 1016.0
20260905160002 71 272 0.0 3.5 0.00 1.37 0.83 90 1016.7
20260905155902 71 272 1.7 4.3 0.00 1.37 0.83 88 1016.0
20260905155403 71 112 1.7 4.3 0.00 1.37 0.83 91 1015.8
20260905154902 71 330 0.9 4.3 0.00 1.37 0.83 92 1015.7
20260905154502 70 340 2.6 7.0 0.00 1.37 0.83 94 1016.4
20260905154403 70 331 2.6 7.0 0.00 1.37 0.83 94 1015.6
20260905153402 69 280 5.2 7.0 0.00 1.37 0.83 95 1015.2
20260905153002 68 302 3.5 6.1 0.01 1.37 0.83 97 1016.0
20260905152902 68 281 4.3 6.1 0.01 1.37 0.83 96 1015.2
20260905152403 68 302 2.6 5.2 0.01 1.37 0.83 96 1015.2
20260905151506 67 285 0.9 3.5 0.02 1.37 0.83 98 1016.0
20260905151403 68 323 1.7 4.3 0.03 1.37 0.83 96 1015.3
20260905150403 67 305 1.7 5.2 0.05 1.37 0.83 96 1015.7
20260905150002 67 329 1.7 4.3 0.06 1.37 0.83 98 1016.7
20260905145903 67 293 1.7 4.3 0.06 1.37 0.83 96 1015.9
20260905145403 67 263 0.0 0.9 0.07 1.37 0.83 100 1016.0
20260905144903 67 263 0.9 1.7 0.08 1.37 0.83 100 1016.2
20260905144503 67 199 0.0 1.7 0.08 1.37 0.83 98 1017.2
20260905144403 67 199 0.0 1.7 0.08 1.37 0.83 100 1016.2
20260905143902 67 199 0.9 1.7 0.09 1.37 0.83 100 1016.5
20260905143402 67 199 0.0 0.9 0.10 1.37 0.83 100 1016.7
20260905143003 67 199 0.0 1.7 0.10 1.36 0.82 98 1017.6
20260905142903 67 199 0.0 0.9 0.10 1.36 0.82 100 1016.7
20260905142403 67 199 0.9 1.7 0.12 1.36 0.82 100 1016.8
20260905141903 67 305 0.0 0.9 0.13 1.35 0.81 100 1016.9
20260905141503 67 305 0.0 1.7 0.14 1.35 0.81 98 1017.8
20260905141402 67 305 0.9 1.7 0.13 1.34 0.80 100 1017.0
20260905140903 67 305 0.9 1.7 0.13 1.33 0.79 100 1017.2
20260905140003 66 126 0.0 3.5 0.14 1.31 0.77 98 1017.9
20260905135903 67 126 0.9 2.6 0.15 1.31 0.77 96 1017.0
20260905135403 67 138 2.6 4.3 0.18 1.30 0.76 96 1017.2
20260905134902 67 124 0.9 2.6 0.32 1.29 0.75 96 1017.8
20260905134503 67 247 0.0 2.6 0.52 1.29 0.75 98 1018.5
20260905134402 67 241 0.9 2.6 0.58 1.29 0.75 96 1017.9
20260905133902 67 225 1.7 2.6 0.69 1.28 0.74 96 1017.8
20260905133403 67 230 0.9 4.3 0.69 1.27 0.73 96 1017.8
20260905133005 67 277 1.7 4.3 0.68 1.26 0.72 98 1018.4
20260905132903 67 229 1.7 4.3 0.68 1.26 0.72 96 1017.7
20260905132403 67 231 0.9 5.2 0.66 1.24 0.70 96 1017.5
20260905131903 67 213 0.9 5.2 0.64 1.22 0.68 96 1017.3
20260905131503 67 219 0.9 7.8 0.63 1.21 0.67 98 1017.9
20260905131403 67 308 1.7 7.8 0.63 1.21 0.67 96 1017.0
20260905130903 67 235 1.7 5.2 0.62 1.20 0.66 100 1017.0
20260905130403 67 325 4.3 7.0 0.61 1.18 0.64 100 1017.1
20260905130004 67 261 1.7 10.4 0.60 1.16 0.63 98 1017.8
20260905125902 67 274 2.6 10.4 0.59 1.16 0.62 100 1016.9
20260905125402 67 347 4.3 10.4 0.57 1.12 0.58 100 1017.2
20260905124902 67 251 6.1 17.4 0.42 0.97 0.43 100 1017.3
20260905124503 66 324 2.6 7.8 0.22 0.77 0.23 99 1018.0
20260905124403 66 297 5.2 7.0 0.16 0.71 0.17 100 1016.6
20260905123403 66 161 0.0 0.0 0.03 0.58 0.04 100 1015.5
20260905123003 65 161 0.0 0.0 0.03 0.58 0.04 99 1016.2
20260905122903 66 161 0.0 0.0 0.03 0.58 0.04 100 1015.5
20260905122403 66 161 0.0 0.0 0.03 0.58 0.04 100 1015.4
20260905121903 66 161 0.0 0.0 0.03 0.58 0.04 100 1015.3
20260905121503 65 161 0.0 5.2 0.03 0.58 0.04 99 1016.1
20260905121402 66 161 0.9 2.6 0.03 0.58 0.04 100 1015.3
20260905120902 66 193 2.6 5.2 0.03 0.58 0.04 100 1015.5
20260905120403 66 144 0.9 2.6 0.02 0.57 0.03 100 1015.5
20260905120003 65 121 0.0 0.0 0.02 0.57 0.03 99 1016.2
20260905115902 66 121 0.0 0.0 0.02 0.57 0.03 100 1015.4
20260905115402 66 121 0.0 0.0 0.00 0.55 0.01 100 1015.3
20260905114903 65 121 0.0 0.9 0.00 0.55 0.01 100 1015.2
20260905114504 65 121 0.0 1.7 0.00 0.55 0.01 99 1015.9
20260905114403 65 121 0.0 1.7 0.00 0.55 0.01 100 1015.3
20260905113903 65 128 0.9 1.7 0.00 0.55 0.01 100 1015.3
20260905113403 65 254 0.9 2.6 0.00 0.55 0.01 100 1015.2
20260905113007 65 254 0.0 2.6 0.00 0.55 0.01 99 1015.9
20260905112903 65 316 0.9 2.6 0.00 0.55 0.01 100 1015.2
20260905112402 65 292 0.9 2.6 0.00 0.55 0.01 100 1015.2
20260905111903 65 243 1.7 2.6 0.00 0.55 0.01 100 1015.3
20260905111508 64 223 0.0 2.6 0.00 0.55 0.01 98 1016.1
20260905110903 65 155 0.0 0.0 0.00 0.55 0.01 100 1015.0
20260905110402 65 155 0.0 0.9 0.00 0.55 0.01 100 1015.0
20260905110010 65 155 0.0 1.7 0.00 0.55 0.01 98 1015.8
20260905105903 65 155 0.0 1.7 0.00 0.55 0.01 100 1014.9
20260905105403 65 155 0.9 1.7 0.00 0.55 0.01 100 1014.9
20260905104902 65 155 0.9 1.7 0.00 0.55 0.01 100 1014.9
20260905104508 65 168 0.9 2.6 0.00 0.55 0.01 99 1015.7
20260905104402 65 205 1.7 2.6 0.00 0.55 0.01 100 1015.0
20260905103903 65 294 0.0 1.7 0.00 0.55 0.01 100 1015.1
20260905103402 65 294 0.9 2.6 0.00 0.55 0.01 100 1015.0
20260905103017 65 294 0.0 0.0 0.00 0.55 0.01 98 1015.8
20260905102903 65 294 0.0 0.0 0.00 0.55 0.01 100 1015.0
20260905102403 65 294 0.0 0.0 0.00 0.55 0.01 100 1015.1
20260905101903 65 294 0.0 0.0 0.00 0.55 0.01 100 1015.0
20260905101509 65 294 0.0 0.0 0.00 0.55 0.01 98 1015.9
20260905101403 65 294 0.0 0.0 0.00 0.55 0.01 100 1015.2
20260905100903 65 294 0.0 0.0 0.00 0.55 0.01 100 1015.3
20260905100402 65 294 0.0 0.0 0.00 0.55 0.01 100 1015.2
20260905100009 65 294 0.0 0.0 0.00 0.55 0.01 98 1016.1
20260905095903 65 294 0.0 0.0 0.00 0.55 0.01 100 1015.2
20260905094903 65 294 0.0 0.0 0.00 0.56 0.01 100 1015.3
20260905094513 65 294 0.0 0.0 0.00 0.56 0.01 99 1016.1
20260905094403 65 294 0.0 0.0 0.00 0.56 0.01 100 1015.3
20260905093903 65 294 0.0 0.0 0.00 0.56 0.01 100 1015.2
20260905093403 65 294 0.0 0.0 0.00 0.56 0.01 100 1015.2
20260905093011 65 294 0.0 0.0 0.00 0.56 0.01 98 1016.0
20260905092403 65 294 0.0 0.0 0.00 0.56 0.01 100 1015.2
20260905091540 65 294 0.0 0.0 0.00 0.56 0.01 98 1016.1
20260905091403 65 294 0.0 0.0 0.00 0.56 0.01 100 1015.3
20260905090902 65 294 0.0 0.0 0.00 0.56 0.01 100 1015.2
20260905090403 65 294 0.0 0.0 0.00 0.56 0.01 100 1015.1
20260905090012 65 294 0.0 0.0 0.00 0.56 0.01 98 1016.0
20260905085903 65 294 0.0 0.0 0.00 0.56 0.01 100 1015.1
20260905084903 65 294 0.0 0.0 0.00 0.56 0.01 100 1015.1
20260905084515 65 294 0.0 0.0 0.00 0.56 0.01 98 1015.8
20260905084402 65 294 0.0 0.0 0.00 0.56 0.01 100 1015.1
20260905083903 65 294 0.0 0.0 0.00 0.56 0.01 100 1015.1
20260905083403 65 294 0.0 0.0 0.00 0.56 0.01 100 1015.1
20260905083003 65 294 0.0 0.0 0.00 0.56 0.01 98 1016.0
20260905082903 65 294 0.0 0.0 0.00 0.56 0.01 100 1015.1
20260905082403 65 294 0.0 0.0 0.00 0.56 0.01 100 1015.2
20260905081505 65 294 0.0 0.0 0.00 0.56 0.01 98 1016.1
20260905081403 65 294 0.0 0.0 0.00 0.56 0.01 100 1015.3
20260905080903 65 294 0.0 0.0 0.00 0.56 0.01 100 1015.3
20260905080007 65 294 0.0 0.0 0.00 0.56 0.01 98 1016.1
20260905075903 65 294 0.0 0.0 0.00 0.56 0.01 100 1015.3
20260905075402 65 294 0.0 0.0 0.00 0.56 0.01 100 1015.4
20260905074902 65 294 0.0 0.0 0.00 0.56 0.01 100 1015.4
20260905074513 65 294 0.0 0.0 0.01 0.56 0.01 98 1016.2
20260905074403 65 294 0.0 0.0 0.01 0.56 0.01 100 1015.5
20260905073903 66 294 0.0 0.0 0.01 0.56 0.01 100 1015.5
20260905073403 66 294 0.0 0.0 0.01 0.56 0.01 100 1015.6
20260905073018 65 294 0.0 0.0 0.01 0.56 0.01 98 1016.4
20260905072903 66 294 0.0 0.0 0.01 0.56 0.01 100 1015.6
20260905072403 66 294 0.0 0.0 0.01 0.56 0.01 100 1015.7
20260905071903 66 294 0.0 0.0 0.01 0.56 0.01 100 1015.8
20260905071504 65 294 0.0 0.0 0.01 0.56 0.01 98 1016.4
20260905071403 66 294 0.0 0.0 0.01 0.56 0.01 100 1015.8
20260905070903 66 294 0.0 0.0 0.01 0.56 0.01 100 1015.8
20260905070403 66 294 0.0 0.0 0.01 0.56 0.01 100 1016.0
20260905070004 65 294 0.0 0.0 0.01 0.56 0.01 98 1016.8
20260905065903 66 294 0.0 0.0 0.01 0.56 0.01 100 1016.1
20260905064902 66 294 0.0 0.0 0.01 0.56 0.01 100 1016.3
20260905064507 65 294 0.0 0.0 0.00 0.55 0.00 98 1017.2
20260905064402 66 294 0.0 0.0 0.00 0.55 0.00 100 1016.4
20260905063403 66 294 0.0 0.0 0.00 0.55 0.00 100 1016.5
20260905063014 65 294 0.0 0.0 0.00 0.55 0.00 98 1017.4
20260905062403 66 294 0.0 0.0 0.00 0.55 0.00 98 1016.7
20260905061903 66 294 0.0 0.0 0.00 0.55 0.00 100 1016.8
20260905061520 65 294 0.0 0.0 0.00 0.55 0.00 98 1017.7
20260905061403 66 294 0.0 0.0 0.00 0.55 0.00 100 1016.8
20260905060902 66 294 0.0 0.0 0.00 0.55 0.00 100 1016.9
20260905060003 65 294 0.0 0.0 0.00 0.55 0.00 98 1017.9
20260905055903 66 294 0.0 0.0 0.00 0.55 0.00 100 1017.2
20260905055403 66 294 0.0 0.0 0.00 0.55 0.00 100 1017.2
20260905054903 66 294 0.0 0.0 0.00 0.55 0.00 100 1017.2
20260905054508 65 294 0.0 0.0 0.00 0.55 0.00 98 1018.0
20260905054403 66 294 0.0 0.0 0.00 0.55 0.00 100 1017.4
20260905053902 66 294 0.0 0.0 0.00 0.55 0.00 100 1017.5
20260905053403 66 274 0.0 0.0 0.00 0.55 0.00 100 1017.5
20260905053010 65 274 0.0 0.0 0.00 0.55 0.00 98 1018.2
20260905052903 66 274 0.0 0.0 0.00 0.55 0.00 100 1017.6
20260905052403 66 274 0.0 0.0 0.00 0.55 0.00 99 1017.5
20260905051902 66 274 0.0 0.0 0.00 0.55 0.00 96 1017.5
20260905051516 65 274 0.0 0.0 0.00 0.55 0.00 98 1018.3
20260905050903 66 274 0.0 0.0 0.00 0.55 0.00 96 1017.7
20260905050403 66 274 0.0 0.0 0.00 0.55 0.00 96 1017.7
20260905050031 65 274 0.0 0.0 0.00 0.55 0.00 98 1018.4
20260905045902 66 274 0.0 0.0 0.00 0.55 0.00 96 1017.7
20260905045403 65 274 0.0 0.0 0.00 0.55 0.00 96 1017.7
20260905044503 65 274 0.0 0.0 0.00 0.55 0.00 98 1018.5
20260905044403 65 274 0.0 0.0 0.00 0.55 0.00 96 1017.8
20260905043403 66 274 0.0 0.0 0.00 0.58 0.00 96 1017.8
20260905043018 65 274 0.0 0.0 0.00 0.64 0.00 98 1018.5
20260905042903 65 274 0.0 0.0 0.00 0.64 0.00 97 1017.9
20260905042403 65 274 0.0 0.0 0.00 0.64 0.00 100 1017.9
20260905041903 65 274 0.0 0.0 0.00 0.64 0.00 100 1018.0
20260905041514 65 274 0.0 0.0 0.00 0.64 0.00 98 1018.6
20260905041403 65 274 0.0 0.0 0.00 0.64 0.00 100 1017.8
20260905040903 65 273 0.0 0.0 0.00 0.64 0.00 100 1017.8
20260905040402 65 273 0.0 1.7 0.00 0.64 0.00 96 1017.8
20260905040021 65 273 0.0 1.7 0.00 0.64 0.00 98 1018.5
20260905035903 65 273 0.0 1.7 0.00 0.64 0.64 96 1018.0
20260905034902 65 273 0.9 2.6 0.00 0.65 0.64 96 1018.0
20260905034527 65 259 0.9 2.6 0.00 0.74 0.64 98 1018.6
20260905034402 65 259 0.9 1.7 0.00 0.74 0.64 96 1017.9
20260905033903 65 259 0.9 2.6 0.00 0.74 0.64 96 1017.8
20260905033403 65 259 0.9 1.7 0.00 0.74 0.64 96 1017.9
20260905033033 65 259 0.0 0.9 0.00 0.74 0.64 98 1018.5
20260905032903 65 259 0.0 0.9 0.00 0.74 0.64 96 1017.8
20260905032403 65 259 0.0 0.9 0.00 0.74 0.64 96 1017.7
20260905031903 65 259 0.9 1.7 0.00 0.74 0.64 96 1017.8
20260905031510 65 259 0.0 0.9 0.00 0.74 0.64 98 1018.4
20260905031403 65 259 0.0 0.9 0.00 0.74 0.64 96 1017.7
20260905030903 65 259 0.0 0.0 0.00 0.74 0.64 96 1017.5
20260905030031 65 259 0.0 2.6 0.00 0.74 0.64 98 1018.2
20260905025403 65 259 0.0 2.6 0.00 0.74 0.64 96 1017.4
20260905024903 65 267 1.7 2.6 0.00 0.74 0.64 96 1017.3
20260905024524 65 313 0.9 3.5 0.00 0.74 0.64 97 1018.1
20260905024403 66 313 1.7 2.6 0.00 0.74 0.64 96 1017.3
20260905023903 66 318 0.9 4.3 0.00 0.74 0.64 96 1017.3
20260905023403 66 281 0.9 1.7 0.00 0.74 0.64 96 1017.3
20260905023033 65 281 0.0 1.7 0.00 0.74 0.64 98 1018.0
20260905022903 66 281 0.9 1.7 0.00 0.74 0.64 96 1017.3
20260905022403 66 281 0.9 1.7 0.00 0.74 0.64 96 1017.3
20260905021903 66 300 0.9 1.7 0.00 0.74 0.64 96 1017.3
20260905021534 66 300 0.9 2.6 0.00 0.74 0.64 97 1017.9
20260905021403 66 300 0.9 2.6 0.00 0.74 0.64 96 1017.2
20260905020904 66 300 1.7 2.6 0.00 0.74 0.64 96 1017.2
20260905020013 66 270 0.9 2.6 0.00 0.74 0.64 97 1017.8
20260905015902 66 270 0.9 1.7 0.00 0.74 0.64 96 1017.1
20260905015403 66 270 0.9 2.6 0.00 0.74 0.64 96 1017.1
20260905014903 66 270 0.9 1.7 0.00 0.74 0.64 96 1017.1
20260905014522 66 270 0.9 1.7 0.00 0.74 0.64 97 1017.7
20260905014402 66 270 0.9 1.7 0.00 0.74 0.64 96 1017.1
20260905013030 66 297 0.9 2.6 0.00 0.74 0.64 97 1017.8
20260905012903 67 297 1.7 2.6 0.00 0.74 0.64 96 1017.0
20260905012403 67 297 0.0 2.6 0.00 0.74 0.64 96 1017.1
20260905011903 67 297 0.0 0.0 0.00 0.74 0.64 96 1017.0
20260905011505 66 297 0.0 0.0 0.00 0.74 0.64 97 1017.7
20260905011403 67 297 0.0 0.0 0.00 0.74 0.64 95 1017.0
20260905010903 67 297 0.0 0.9 0.00 0.74 0.64 95 1017.0
20260905010016 67 252 0.9 3.5 0.00 0.74 0.64 97 1017.7
20260905005902 67 252 2.6 4.3 0.00 0.74 0.64 96 1016.8
20260905004902 67 288 1.7 2.6 0.00 0.74 0.64 95 1016.7
20260905004522 67 280 0.9 2.6 0.00 0.74 0.64 97 1017.5
20260905004403 67 280 1.7 2.6 0.00 0.74 0.64 95 1016.7
20260905003903 67 262 1.7 2.6 0.00 0.74 0.64 95 1016.7
20260905003403 67 275 0.9 2.6 0.00 0.74 0.64 95 1016.6
20260905003030 67 275 0.9 2.6 0.00 0.74 0.64 97 1017.5
20260905002403 68 275 0.9 2.6 0.00 0.74 0.64 95 1016.5
20260905001903 68 275 1.7 2.6 0.00 0.74 0.64 95 1016.5
20260905001544 67 275 0.9 3.5 0.00 0.74 0.64 97 1017.3
20260905001403 68 275 0.9 2.6 0.00 0.74 0.64 95 1016.4
20260905000902 68 275 1.7 4.3 0.00 0.74 0.64 95 1016.4
20260905000403 68 295 1.7 2.6 0.00 0.74 0.64 95 1016.6
20260905000007 68 268 0.9 2.6 0.00 0.74 0.64 97 1017.5
20260904235902 68 268 2.6 2.6 0.00 0.74 0.64 95 1016.6
20260904235403 68 297 0.9 2.6 0.00 0.74 0.64 94 1016.5
20260904234903 69 313 1.7 2.6 0.00 0.74 0.64 94 1016.4
20260904234516 68 265 0.9 2.6 0.00 0.74 0.64 95 1017.3
20260904234403 69 265 0.9 1.7 0.00 0.74 0.64 94 1016.4
20260904233902 69 265 1.7 2.6 0.00 0.74 0.64 93 1016.5
20260904233402 69 242 0.9 2.6 0.00 0.74 0.64 93 1016.6
20260904233041 69 242 0.0 2.6 0.00 0.74 0.64 94 1017.5
20260904232903 69 242 0.9 1.7 0.00 0.74 0.64 93 1016.8
20260904232403 70 242 0.9 2.6 0.00 0.74 0.64 92 1016.8
20260904231903 70 283 0.9 2.6 0.00 0.74 0.64 92 1017.0
20260904231533 70 252 0.9 2.6 0.00 0.74 0.64 93 1017.8
20260904231403 70 269 0.9 2.6 0.00 0.74 0.64 92 1017.0
20260904230903 70 322 0.9 1.7 0.00 0.74 0.64 92 1016.9
20260904230403 70 322 0.9 2.6 0.00 0.74 0.64 91 1016.9
20260904230030 70 322 0.9 2.6 0.00 0.74 0.64 92 1017.7
20260904225403 71 288 0.9 1.7 0.00 0.74 0.64 90 1016.8
20260904224903 70 263 1.7 5.2 0.00 0.74 0.64 90 1016.9
20260904224508 70 304 0.9 3.5 0.00 0.74 0.64 93 1017.7
20260904224402 70 304 1.7 4.3 0.00 0.74 0.64 91 1016.9
20260904223903 70 304 2.6 4.3 0.00 0.74 0.64 92 1017.0
20260904223015 69 257 0.0 0.9 0.00 0.74 0.64 94 1017.9
20260904222903 70 257 0.0 0.9 0.00 0.74 0.64 93 1017.0
20260904222403 70 257 0.0 1.7 0.00 0.74 0.64 93 1017.1
20260904221523 69 257 0.0 3.5 0.00 0.74 0.64 95 1018.1
20260904221403 69 257 0.0 1.7 0.00 0.74 0.64 94 1017.1
20260904220903 69 257 0.9 4.3 0.00 0.74 0.64 94 1017.3
20260904220035 69 156 0.0 1.7 0.00 0.74 0.64 96 1018.3
20260904215902 69 156 0.0 1.7 0.00 0.74 0.64 95 1017.5
20260904215403 69 156 0.9 1.7 0.00 0.74 0.64 95 1017.5
20260904214903 69 176 0.9 2.6 0.00 0.74 0.64 95 1017.7
20260904214532 69 300 0.9 2.6 0.00 0.74 0.64 96 1018.7
20260904214403 69 300 0.9 2.6 0.00 0.74 0.64 95 1017.8
20260904213903 69 302 0.0 2.6 0.01 0.74 0.64 95 1017.8
20260904213403 69 285 0.9 2.6 0.01 0.74 0.64 95 1017.7
20260904213022 68 300 0.9 2.6 0.01 0.74 0.64 96 1018.6
20260904212904 69 300 2.6 2.6 0.02 0.74 0.64 95 1017.7
20260904212403 69 326 1.7 2.6 0.02 0.74 0.64 95 1017.8
20260904211903 69 271 0.9 2.6 0.02 0.74 0.64 95 1018.0
20260904211519 68 304 0.9 3.5 0.04 0.74 0.64 96 1019.1
20260904210903 69 280 1.7 4.3 0.07 0.74 0.64 94 1018.2
20260904210403 69 287 2.6 4.3 0.11 0.74 0.64 94 1018.2
20260904210044 68 305 1.7 3.5 0.16 0.74 0.64 95 1019.0
20260904205903 69 280 1.7 2.6 0.20 0.74 0.64 94 1018.3
20260904205403 69 314 2.6 4.3 0.54 0.74 0.64 93 1018.1
20260904204903 69 209 0.9 2.6 0.54 0.74 0.64 93 1018.2
20260904204534 68 211 0.9 3.5 0.54 0.74 0.64 94 1019.3
20260904203903 69 213 1.7 4.3 0.53 0.73 0.63 93 1019.0
20260904203403 69 128 1.7 4.3 0.53 0.73 0.63 92 1019.2
20260904203036 69 135 2.6 7.0 0.52 0.73 0.63 94 1020.0
20260904202903 70 142 4.3 5.2 0.52 0.72 0.62 92 1019.4
20260904202403 70 104 2.6 7.0 0.52 0.72 0.62 91 1019.5
20260904201519 70 251 1.7 8.7 0.50 0.70 0.60 91 1020.4
20260904201402 71 256 2.6 8.7 0.49 0.69 0.59 89 1019.6
20260904200903 71 276 0.9 10.4 0.47 0.67 0.57 89 1019.6
20260904200403 72 23 7.8 12.2 0.43 0.63 0.53 88 1019.7
20260904200026 72 352 6.1 34.8 0.38 0.58 0.48 88 1020.5
20260904195903 73 325 9.6 34.8 0.34 0.54 0.44 85 1019.9
20260904195403 79 351 18.2 34.8 0.00 0.20 0.10 74 1018.6
20260904194903 82 312 3.5 7.0 0.00 0.20 0.10 74 1017.9
20260904194526 82 301 3.5 7.8 0.00 0.20 0.10 74 1018.5
20260904194403 82 312 4.3 7.8 0.00 0.20 0.10 73 1017.5
20260904193903 83 319 5.2 7.8 0.00 0.20 0.10 72 1017.5
20260904193403 83 317 2.6 7.0 0.00 0.20 0.10 71 1017.1
20260904193031 83 5 4.3 8.7 0.00 0.20 0.10 71 1017.7
20260904192902 84 324 5.2 8.7 0.00 0.20 0.10 70 1016.6
20260904192403 84 311 2.6 7.0 0.00 0.20 0.10 68 1017.0
20260904191903 84 296 3.5 7.0 0.00 0.20 0.10 68 1017.0
20260904191533 84 310 3.5 13.0 0.00 0.20 0.10 69 1017.7
20260904190903 85 344 6.1 13.0 0.00 0.20 0.10 66 1017.1
20260904190403 85 325 6.1 10.4 0.00 0.20 0.10 64 1017.0
20260904190033 85 337 3.5 13.0 0.00 0.20 0.10 66 1017.6
20260904185903 86 339 7.8 10.4 0.00 0.20 0.10 63 1016.8
20260904185403 86 319 8.7 13.0 0.00 0.20 0.10 64 1016.7
20260904184902 86 321 6.1 11.3 0.00 0.20 0.10 63 1016.8
20260904184523 86 325 5.2 11.3 0.00 0.20 0.10 65 1017.4
20260904184403 86 295 6.1 7.8 0.00 0.20 0.10 63 1016.6
20260904183903 86 306 6.1 11.3 0.00 0.20 0.10 64 1016.6
20260904183403 86 336 5.2 10.4 0.00 0.20 0.10 64 1016.9
20260904183007 86 319 4.3 11.3 0.00 0.20 0.10 64 1017.6
20260904182903 86 327 7.0 11.3 0.00 0.20 0.10 64 1016.9
20260904181903 86 316 7.8 12.2 0.00 0.20 0.10 64 1017.4
20260904181521 85 314 6.1 10.4 0.00 0.20 0.10 67 1018.3
20260904181403 86 321 5.2 10.4 0.00 0.20 0.10 66 1017.4
20260904180903 85 323 6.1 10.4 0.00 0.20 0.10 66 1017.6
20260904180402 86 322 8.7 12.2 0.00 0.20 0.10 65 1017.6
20260904180018 85 294 6.1 13.9 0.00 0.20 0.10 65 1018.4
20260904175403 86 312 5.2 13.9 0.00 0.20 0.10 65 1017.8
20260904174903 86 322 8.7 13.0 0.00 0.20 0.10 63 1017.8
20260904174521 86 283 5.2 10.4 0.00 0.20 0.10 69 1018.6
20260904174403 86 305 5.2 10.4 0.00 0.20 0.10 65 1017.9
20260904173903 85 327 6.1 10.4 0.00 0.20 0.10 68 1018.0
20260904173403 85 318 7.0 10.4 0.00 0.20 0.10 67 1018.0
20260904173045 84 22 5.2 14.8 0.00 0.20 0.10 71 1018.8
20260904172903 85 322 7.8 11.3 0.00 0.20 0.10 67 1018.1
20260904172403 84 343 7.0 15.6 0.00 0.20 0.10 68 1018.0
20260904171903 84 319 6.1 10.4 0.00 0.20 0.10 69 1018.1
20260904171512 84 339 4.3 10.4 0.00 0.20 0.10 70 1018.9
20260904171403 84 339 4.3 10.4 0.00 0.20 0.10 68 1018.3
20260904170903 84 6 5.2 10.4 0.00 0.20 0.10 70 1018.3
20260904170403 83 298 5.2 8.7 0.00 0.20 0.10 68 1018.2
20260904170012 83 285 7.0 13.0 0.00 0.20 0.10 69 1019.2
20260904165403 85 297 2.6 6.1 0.00 0.20 0.10 69 1018.3